H1 CPF 2 NER 2023 9 22 9 265 01 glonass143 H2 2007501 9143 46805 2023 9 22 0 0 0 2023 9 25 23 45 0 900 1 1 0 0 0 1 H9 10 0 60209 0.00000 0 6071460.931 -9351958.202 22956342.256 10 0 60209 900.00000 0 8127105.848 -7400912.089 23031003.014 10 0 60209 1800.00000 0 10305420.845 -5616261.032 22659013.836 10 0 60209 2700.00000 0 12548984.768 -4037312.980 21847507.468 10 0 60209 3600.00000 0 14794921.818 -2692368.726 20612131.264 10 0 60209 4500.00000 0 16977360.393 -1597739.249 18976753.124 10 0 60209 5400.00000 0 19030035.308 -757275.197 16973009.026 10 0 60209 6300.00000 0 20888925.884 -162427.807 14639699.829 10 0 60209 7200.00000 0 22494820.469 207161.560 12022047.954 10 0 60209 8100.00000 0 23795700.399 382568.175 9170827.367 10 0 60209 9000.00000 0 24748843.546 404033.145 6141382.910 10 0 60209 9900.00000 0 25322558.754 319020.655 2992557.585 10 0 60209 10800.00000 0 25497477.703 179965.652 -214451.523 10 0 60209 11700.00000 0 25267349.092 41807.739 -3417286.270 10 0 60209 12600.00000 0 24639300.934 -40583.503 -6553645.625 10 0 60209 13500.00000 0 23633559.197 -14981.766 -9562504.563 10 0 60209 14400.00000 0 22282634.127 165734.386 -12385309.094 10 0 60209 15300.00000 0 20630008.177 541337.113 -14967123.181 10 0 60209 16200.00000 0 18728380.660 1142318.469 -17257704.466 10 0 60209 17100.00000 0 16637543.006 1988356.146 -19212487.188 10 0 60209 18000.00000 0 14421974.065 3087241.875 -20793452.735 10 0 60209 18900.00000 0 12148256.603 4434318.865 -21969870.736 10 0 60209 19800.00000 0 9882423.357 6012452.994 -22718896.335 10 0 60209 20700.00000 0 7687343.830 7792539.855 -23026012.264 10 0 60209 21600.00000 0 5620260.877 9734527.098 -22885307.496 10 0 60209 22500.00000 0 3730579.527 11788909.819 -22299587.503 10 0 60209 23400.00000 0 2057999.693 13898636.817 -21280314.373 10 0 60209 24300.00000 0 631069.691 16001348.315 -19847378.352 10 0 60209 25200.00000 0 -533780.336 18031851.871 -18028705.533 10 0 60209 26100.00000 0 -1432686.182 19924733.103 -15859709.572 10 0 60209 27000.00000 0 -2074261.507 21616992.288 -13382598.276 10 0 60209 27900.00000 0 -2478979.416 23050596.715 -10645548.684 10 0 60209 28800.00000 0 -2678051.405 24174842.171 -7701766.897 10 0 60209 29700.00000 0 -2711852.532 24948424.962 -4608451.125 10 0 60209 30600.00000 0 -2627960.638 25341138.018 -1425678.347 10 0 60209 31500.00000 0 -2478893.603 25335120.390 1784763.487 10 0 60209 32400.00000 0 -2319641.163 24925608.270 4960574.768 10 0 60209 33300.00000 0 -2205096.300 24121156.569 8040151.609 10 0 60209 34200.00000 0 -2187495.204 22943322.266 10963777.748 10 0 60209 35100.00000 0 -2313974.203 21425823.260 13674777.966 10 0 60209 36000.00000 0 -2624346.938 19613208.178 16120610.965 10 0 60209 36900.00000 0 -3149195.598 17559092.906 18253881.004 10 0 60209 37800.00000 0 -3908356.741 15324037.333 20033249.364 10 0 60209 38700.00000 0 -4909865.665 12973150.453 21424228.807 10 0 60209 39600.00000 0 -6149404.153 10573522.966 22399846.416 10 0 60209 40500.00000 0 -7610275.517 8191593.377 22941162.758 10 0 60209 41400.00000 0 -9263909.062 5890556.027 23037637.887 10 0 60209 42300.00000 0 -11070874.174 3727917.751 22687337.414 10 0 60209 43200.00000 0 -12982363.201 1753303.533 21896974.655 10 0 60209 44100.00000 0 -14942082.837 6601.368 20681787.707 10 0 60209 45000.00000 0 -16888476.606 -1483477.409 19065253.193 10 0 60209 45900.00000 0 -18757187.104 -2700363.083 17078641.292 10 0 60209 46800.00000 0 -20483656.327 -3640078.147 14760419.630 10 0 60209 47700.00000 0 -22005756.097 -4311155.079 12155516.478 10 0 60209 48600.00000 0 -23266338.926 -4734025.087 9314456.555 10 0 60209 49500.00000 0 -24215602.338 -4939903.746 6292385.374 10 0 60209 50400.00000 0 -24813167.030 -4969220.740 3148000.578 10 0 60209 51300.00000 0 -25029780.812 -4869660.293 -57589.120 10 0 60209 52200.00000 0 -24848575.728 -4693895.605 -3262055.049 10 0 60209 53100.00000 0 -24265824.427 -4497113.827 -6403066.049 10 0 60209 54000.00000 0 -23291162.932 -4334437.263 -9419507.853 10 0 60209 54900.00000 0 -21947269.552 -4258351.066 -12252679.787 10 0 60209 55800.00000 0 -20269012.787 -4316247.571 -14847444.545 10 0 60209 56700.00000 0 -18302103.618 -4548192.473 -17153307.851 10 0 60209 57600.00000 0 -16101308.589 -4985008.569 -19125406.332 10 0 60209 58500.00000 0 -13728298.617 -5646759.243 -20725383.931 10 0 60209 59400.00000 0 -11249223.799 -6541696.726 -21922139.646 10 0 60209 60300.00000 0 -8732115.724 -7665720.425 -22692432.101 10 0 60209 61200.00000 0 -6244225.967 -9002368.851 -23021329.427 10 0 60209 62100.00000 0 -3849411.710 -10523346.123 -22902496.065 10 0 60209 63000.00000 0 -1605677.214 -12189561.421 -22338311.361 10 0 60209 63900.00000 0 437026.946 -13952638.135 -21339818.038 10 0 60209 64800.00000 0 2238656.022 -15756829.707 -19926501.942 10 0 60209 65700.00000 0 3770498.550 -17541262.064 -18125907.629 10 0 60209 66600.00000 0 5016120.972 -19242408.804 -15973097.518 10 0 60209 67500.00000 0 5971791.597 -20796695.511 -13509965.318 10 0 60209 68400.00000 0 6646367.978 -22143124.110 -10784417.202 10 0 60209 69300.00000 0 7060654.253 -23225807.288 -7849436.891 10 0 60209 70200.00000 0 7246257.283 -23996306.812 -4762052.985 10 0 60209 71100.00000 0 7243991.396 -24415677.727 -1582228.865 10 0 60209 72000.00000 0 7101900.446 -24456132.886 1628302.982 10 0 60209 72900.00000 0 6872981.839 -24102258.164 4807239.290 10 0 60209 73800.00000 0 6612709.562 -23351727.654 7892913.604 10 0 60209 74700.00000 0 6376461.443 -22215489.120 10825489.523 10 0 60209 75600.00000 0 6216959.665 -20717412.146 13548116.588 10 0 60209 76500.00000 0 6181832.725 -18893413.818 16008026.696 10 0 60209 77400.00000 0 6311401.669 -16790098.446 18157550.211 10 0 60209 78300.00000 0 6636783.866 -14462967.870 19955032.821 10 0 60209 79200.00000 0 7178394.114 -11974276.456 21365636.111 10 0 60209 80100.00000 0 7944906.261 -9390619.402 22362007.183 10 0 60209 81000.00000 0 8932719.315 -6780353.696 22924805.094 10 0 60209 81900.00000 0 10125951.118 -4210957.756 23043074.522 10 0 60209 82800.00000 0 11496960.785 -1746438.250 22714459.732 10 0 60209 83700.00000 0 13007379.282 555109.524 21945254.738 10 0 60209 84600.00000 0 14609606.416 2643687.528 20750288.344 10 0 60209 85500.00000 0 16248713.083 4479237.338 19152645.693 10 0 60210 0.00000 0 17864670.454 6033063.069 17183230.990 10 0 60210 900.00000 0 19394814.885 7288777.070 14880177.696 10 0 60210 1800.00000 0 20776444.035 8242727.391 12288119.289 10 0 60210 2700.00000 0 21949438.773 8903892.307 9457330.163 10 0 60210 3600.00000 0 22858798.733 9293244.501 6442755.106 10 0 60210 4500.00000 0 23456985.533 9442612.811 3302944.683 10 0 60210 5400.00000 0 23705974.238 9393089.686 98917.199 10 0 60210 6300.00000 0 23578925.749 9193052.035 -3107030.483 10 0 60210 7200.00000 0 23061408.487 8895879.725 -6252539.627 10 0 60210 8100.00000 0 22152116.719 8557469.011 -9276409.416 10 0 60210 9000.00000 0 20863054.082 8233647.138 -12119795.247 10 0 60210 9900.00000 0 19219173.586 7977598.586 -14727361.285 10 0 60210 10800.00000 0 17257488.430 7837413.027 -17048363.998 10 0 60210 11700.00000 0 15025690.384 7853859.848 -19037644.956 10 0 60210 12600.00000 0 12580333.403 8058484.312 -20656513.088 10 0 60210 13500.00000 0 9984658.315 8472106.685 -21873499.048 10 0 60210 14400.00000 0 7306149.522 9103788.375 -22664967.069 10 0 60210 15300.00000 0 4613925.697 9950309.253 -23015572.598 10 0 60210 16200.00000 0 1976073.181 10996178.554 -22918557.198 10 0 60210 17100.00000 0 -542967.065 12214179.225 -22375875.395 10 0 60210 18000.00000 0 -2884850.579 13566422.968 -21398151.437 10 0 60210 18900.00000 0 -4999517.261 15005871.797 -20004467.185 10 0 60210 19800.00000 0 -6847025.852 16478262.226 -18221985.567 10 0 60210 20700.00000 0 -8398959.798 17924351.291 -16085417.155 10 0 60210 21600.00000 0 -9639347.372 19282390.057 -13636340.444 10 0 60210 22500.00000 0 -10565059.257 20490720.682 -10922389.175 10 0 60210 23400.00000 0 -11185668.797 21490387.887 -7996322.706 10 0 60210 24300.00000 0 -11522782.564 22227655.041 -4914997.689 10 0 60210 25200.00000 0 -11608871.199 22656319.112 -1738261.274 10 0 60210 26100.00000 0 -11485651.305 22739727.186 1472212.373 10 0 60210 27000.00000 0 -11202088.005 22452409.842 4654119.382 10 0 60210 27900.00000 0 -10812103.502 21781262.843 7745733.886 10 0 60210 28800.00000 0 -10372089.164 20726227.574 10687102.569 10 0 60210 29700.00000 0 -9938326.607 19300441.716 13421202.967 10 0 60210 30600.00000 0 -9564426.813 17529853.742 15895043.334 10 0 60210 31500.00000 0 -9298895.258 15452317.157 18060683.219 10 0 60210 32400.00000 0 -9182925.475 13116201.914 19876155.611 10 0 60210 33300.00000 0 -9248513.707 10578580.272 21306273.605 10 0 60210 34200.00000 0 -9516973.802 7903061.824 22323306.730 10 0 60210 35100.00000 0 -9997914.697 5157366.690 22907514.607 10 0 60210 36000.00000 0 -10688723.657 2410736.432 23047528.222 10 0 60210 36900.00000 0 -11574577.441 -268711.075 22740571.724 10 0 60210 37800.00000 0 -12628981.719 -2816574.434 21992520.543 10 0 60210 38700.00000 0 -13814817.195 -5174602.832 20817794.363 10 0 60210 39600.00000 0 -15085849.776 -7292871.536 19239086.445 10 0 60210 40500.00000 0 -16388642.786 -9131609.323 17286933.648 10 0 60210 41400.00000 0 -17664792.176 -10662602.555 14999134.444 10 0 60210 42300.00000 0 -18853391.929 -11870117.912 12420025.133 10 0 60210 43200.00000 0 -19893626.718 -12751305.643 9599627.278 10 0 60210 44100.00000 0 -20727383.082 -13316066.742 6592682.061 10 0 60210 45000.00000 0 -21301769.056 -13586389.895 3457589.796 10 0 60210 45900.00000 0 -21571435.508 -13595186.352 255275.005 10 0 60210 46800.00000 0 -21500600.438 -13384672.223 -2952000.771 10 0 60210 47700.00000 0 -21064689.656 -13004366.979 -6101854.809 10 0 60210 48600.00000 0 -20251523.327 -12508793.396 -9133003.339 10 0 60210 49500.00000 0 -19061996.987 -11954977.064 -11986461.378 10 0 60210 50400.00000 0 -17510227.056 -11399852.124 -14606697.963 10 0 60210 51300.00000 0 -15623153.598 -10897684.024 -16942723.490 10 0 60210 52200.00000 0 -13439616.101 -10497619.207 -18949087.320 10 0 60210 53100.00000 0 -11008940.396 -10241466.208 -20586765.766 10 0 60210 54000.00000 0 -8389095.425 -10161802.611 -21823923.001 10 0 60210 54900.00000 0 -5644496.623 -10280488.294 -22636530.115 10 0 60210 55800.00000 0 -2843547.434 -10607648.044 -23008830.479 10 0 60210 56700.00000 0 -56021.269 -11141166.565 -22933642.757 10 0 60210 57600.00000 0 2649607.335 -11866717.191 -22412496.073 10 0 60210 58500.00000 0 5208771.607 -12758322.997 -21455595.113 10 0 60210 59400.00000 0 7563253.548 -13779426.549 -20081616.249 10 0 60210 60300.00000 0 9663356.219 -14884423.086 -18317338.925 10 0 60210 61200.00000 0 11469717.905 -16020592.429 -16197119.723 10 0 60210 62100.00000 0 12954693.775 -17130348.099 -13762219.544 10 0 60210 63000.00000 0 14103248.892 -18153708.825 -11059997.098 10 0 60210 63900.00000 0 14913326.836 -19030888.201 -8142984.618 10 0 60210 64800.00000 0 15395680.276 -19704893.296 -5067863.922 10 0 60210 65700.00000 0 15573172.334 -20124022.688 -1894362.973 10 0 60210 66600.00000 0 15479579.766 -20244158.590 1315905.344 10 0 60210 67500.00000 0 15157949.821 -20030756.502 4500639.428 10 0 60210 68400.00000 0 14658581.246 -19460448.609 7598056.735 10 0 60210 69300.00000 0 14036715.495 -18522193.387 10548089.545 10 0 60210 70200.00000 0 13350036.120 -17217923.026 13293545.623 10 0 60210 71100.00000 0 12656082.064 -15562661.238 15781211.525 10 0 60210 72000.00000 0 12009683.884 -13584106.201 17962877.576 10 0 60210 72900.00000 0 11460530.639 -11321695.483 19796265.342 10 0 60210 73800.00000 0 11050969.471 -8825191.257 21245840.365 10 0 60210 74700.00000 0 10814129.957 -6152843.783 22283495.217 10 0 60210 75600.00000 0 10772451.687 -3369208.432 22889090.406 10 0 60210 76500.00000 0 10936676.646 -542705.611 23050843.266 10 0 60210 77400.00000 0 11305348.724 2256976.506 22765557.634 10 0 60210 78300.00000 0 11864841.650 4961530.088 22038689.945 10 0 60210 79200.00000 0 12589914.748 7506618.165 20884250.173 10 0 60210 80100.00000 0 13444774.035 9834301.196 19324538.946 10 0 60210 81000.00000 0 14384595.088 11895199.979 17389725.079 10 0 60210 81900.00000 0 15357444.724 13650305.739 15117270.660 10 0 60210 82800.00000 0 16306521.638 15072362.558 12551213.786 10 0 60210 83700.00000 0 17172622.408 16146764.818 9741321.827 10 0 60210 84600.00000 0 17896729.401 16871932.386 6742130.808 10 0 60210 85500.00000 0 18422611.452 17259147.945 3611889.050 10 0 60211 0.00000 0 18699327.188 17331863.466 411425.636 10 0 60211 900.00000 0 18683524.602 17124505.271 -2797035.892 10 0 60211 1800.00000 0 18341438.342 16680828.347 -5951090.750 10 0 60211 2700.00000 0 17650499.541 16051890.030 -8989374.486 10 0 60211 3600.00000 0 16600488.326 15293729.154 -11852764.006 10 0 60211 4500.00000 0 15194179.155 14464849.629 -14485535.446 10 0 60211 5400.00000 0 13447450.345 13623615.641 -16836455.280 10 0 60211 6300.00000 0 11388852.006 12825669.405 -18859782.719 10 0 60211 7200.00000 0 9058649.505 12121481.291 -20516163.444 10 0 60211 8100.00000 0 6507381.794 11554136.364 -21773397.037 10 0 60211 9000.00000 0 3793994.308 11157451.108 -22607063.229 10 0 60211 9900.00000 0 983624.057 10954499.936 -23000994.981 10 0 60211 10800.00000 0 -1854871.076 10956613.501 -22947589.521 10 0 60211 11700.00000 0 -4651536.234 11162890.776 -22447951.749 10 0 60211 12600.00000 0 -7337987.762 11560245.055 -21511867.624 10 0 60211 13500.00000 0 -9850015.154 12123981.461 -20157608.439 10 0 60211 14400.00000 0 -12130009.155 12818881.133 -18411570.104 10 0 60211 15300.00000 0 -14129115.695 13600745.911 -16307754.703 10 0 60211 16200.00000 0 -15809027.010 14418337.950 -13887104.594 10 0 60211 17100.00000 0 -17143336.424 15215632.115 -11196702.127 10 0 60211 18000.00000 0 -18118401.620 15934285.795 -8288850.738 10 0 60211 18900.00000 0 -18733681.793 16516221.677 -5220055.467 10 0 60211 19800.00000 0 -19001536.177 16906214.250 -2049922.900 10 0 60211 20700.00000 0 -18946493.971 17054370.757 1159997.761 10 0 60211 21600.00000 0 -18604027.820 16918401.741 4347409.780 10 0 60211 22500.00000 0 -18018883.795 16465585.353 7450476.699 10 0 60211 23400.00000 0 -17243039.175 15674342.493 10409019.311 10 0 60211 24300.00000 0 -16333374.827 14535356.309 13165678.633 10 0 60211 25200.00000 0 -15349160.605 13052188.689 15667022.584 10 0 60211 26100.00000 0 -14349459.692 11241367.470 17864575.318 10 0 60211 27000.00000 0 -13390560.902 9131940.058 19715749.914 10 0 60211 27900.00000 0 -12523546.441 6764511.301 21184667.116 10 0 60211 28800.00000 0 -11792096.707 4189804.681 22242845.034 10 0 60211 29700.00000 0 -11230623.671 1466805.539 22869747.215 10 0 60211 30600.00000 0 -10862810.541 -1339437.946 23053179.105 10 0 60211 31500.00000 0 -10700618.597 -4160266.113 22789525.548 10 0 60211 32400.00000 0 -10743802.612 -6926011.350 22083824.824 10 0 60211 33300.00000 0 -10979955.292 -9568647.231 20949677.529 10 0 60211 34200.00000 0 -11385079.223 -12024374.595 19408991.472 10 0 60211 35100.00000 0 -11924662.856 -14236038.312 17491566.719 10 0 60211 36000.00000 0 -12555216.029 -16155275.086 15234527.777 10 0 60211 36900.00000 0 -13226201.149 -17744303.439 12681612.886 10 0 60211 37800.00000 0 -13882279.301 -18977281.569 9882333.160 10 0 60211 38700.00000 0 -14465776.999 -19841176.453 6891017.067 10 0 60211 39600.00000 0 -14919269.551 -20336107.851 3765758.242 10 0 60211 40500.00000 0 -15188171.628 -20475152.720 567286.842 10 0 60211 41400.00000 0 -15223224.898 -20283618.346 -2642213.531 10 0 60211 42300.00000 0 -14982776.534 -19797814.894 -5800319.846 10 0 60211 43200.00000 0 -14434750.989 -19063379.455 -8845590.312 10 0 60211 44100.00000 0 -13558230.242 -18133222.766 -11718767.116 10 0 60211 45000.00000 0 -12344574.262 -17065185.888 -14363936.872 10 0 60211 45900.00000 0 -10798032.883 -15919506.499 -16729625.391 10 0 60211 46800.00000 0 -8935821.946 -14756202.479 -18769804.783 10 0 60211 47700.00000 0 -6787659.225 -13632483.845 -20444792.802 10 0 60211 48600.00000 0 -4394778.602 -12600302.729 -21722026.706 10 0 60211 49500.00000 0 -1808462.925 -11704144.918 -22576696.627 10 0 60211 50400.00000 0 911843.744 -10979156.093 -22992226.286 10 0 60211 51300.00000 0 3700766.209 -10449681.408 -22960592.084 10 0 60211 52200.00000 0 6489478.001 -10128279.445 -22482474.769 10 0 60211 53100.00000 0 9208328.111 -10015251.404 -21567241.138 10 0 60211 54000.00000 0 11789505.676 -10098704.540 -20232756.530 10 0 60211 54900.00000 0 14169632.231 -10355146.337 -18505032.047 10 0 60211 55800.00000 0 16292174.174 -10750583.521 -16417713.615 10 0 60211 56700.00000 0 18109575.756 -11242078.747 -14011423.022 10 0 60211 57600.00000 0 19585024.571 -11779698.609 -11332963.864 10 0 60211 58500.00000 0 20693776.944 -12308770.059 -8434408.053 10 0 60211 59400.00000 0 21423989.046 -12772349.494 -5372080.804 10 0 60211 60300.00000 0 21777020.334 -13113799.734 -2205464.055 10 0 60211 61200.00000 0 21767197.963 -13279365.747 1003960.088 10 0 60211 62100.00000 0 21421053.448 -13220640.015 4193903.186 10 0 60211 63000.00000 0 20776064.932 -12896813.277 7302478.200 10 0 60211 63900.00000 0 19878958.970 -12276615.459 10269397.548 10 0 60211 64800.00000 0 18783644.096 -11339864.775 13037138.300 10 0 60211 65700.00000 0 17548863.558 -10078559.461 15552052.162 10 0 60211 66600.00000 0 16235666.063 -8497465.841 17765399.123 10 0 60211 67500.00000 0 14904800.662 -6614177.416 19634285.355 10 0 60211 68400.00000 0 13614144.692 -4458641.641 21122487.957 10 0 60211 69300.00000 0 12416272.035 -2072173.108 22201151.311 10 0 60211 70200.00000 0 11356262.853 494006.993 22849342.357 10 0 60211 71100.00000 0 10469845.731 3180645.848 23054454.629 10 0 60211 72000.00000 0 9781949.337 5922671.989 22812453.608 10 0 60211 72900.00000 0 9305723.633 8651655.985 22127958.735 10 0 60211 73800.00000 0 9042071.294 11298418.248 21014160.259 10 0 60211 74700.00000 0 8979708.860 13795677.067 19492571.961 10 0 60211 75600.00000 0 9095755.164 16080628.049 17592623.747 10 0 60211 76500.00000 0 9356822.631 18097348.645 15351100.954 10 0 60211 77400.00000 0 9720565.969 19798928.205 12811440.222 10 0 60211 78300.00000 0 10137623.427 21149235.057 10022894.539 10 0 60211 79200.00000 0 10553869.068 22124246.844 7039582.813 10 0 60211 80100.00000 0 10912881.026 22712888.299 3919441.885 10 0 60211 81000.00000 0 11158521.236 22917341.126 723101.075 10 0 60211 81900.00000 0 11237516.959 22752812.785 -2487298.780 10 0 60211 82800.00000 0 11101933.997 22246773.775 -5649318.360 10 0 60211 83700.00000 0 10711435.772 21437695.595 -8701440.725 10 0 60211 84600.00000 0 10035231.294 20373342.784 -11584275.434 10 0 60211 85500.00000 0 9053628.156 19108691.446 -14241721.532 10 0 60212 0.00000 0 7759123.534 17703562.699 -16622065.787 10 0 60212 900.00000 0 6156984.911 16220070.608 -18678995.315 10 0 60212 1800.00000 0 4265296.486 14719994.655 -20372501.274 10 0 60212 2700.00000 0 2114465.786 13262185.335 -21669660.051 10 0 60212 3600.00000 0 -253788.217 11900114.193 -22545273.516 10 0 60212 4500.00000 0 -2787924.564 10679670.645 -22982357.363 10 0 60212 5400.00000 0 -5428485.676 9637298.054 -22972468.185 10 0 60212 6300.00000 0 -8110339.640 8798546.839 -22515863.350 10 0 60212 7200.00000 0 -10765166.341 8177104.619 -21621490.941 10 0 60212 8100.00000 0 -13324084.276 7774343.139 -20306810.416 10 0 60212 9000.00000 0 -15720309.053 7579399.898 -18597447.731 10 0 60212 9900.00000 0 -17891733.276 7569789.839 -16526691.922 10 0 60212 10800.00000 0 -19783320.876 7712520.134 -14134843.110 10 0 60212 11700.00000 0 -21349216.683 7965659.998 -11468424.730 10 0 60212 12600.00000 0 -22554483.978 8280298.264 -8579275.503 10 0 60212 13500.00000 0 -23376398.318 8602805.239 -5523538.947 10 0 60212 14400.00000 0 -23805244.584 8877302.565 -2360570.299 10 0 60212 15300.00000 0 -23844584.940 9048236.128 848217.661 10 0 60212 16200.00000 0 -23510987.692 9062942.855 4040547.187 10 0 60212 17100.00000 0 -22833229.480 8874102.580 7154483.228 10 0 60212 18000.00000 0 -21851005.364 8441971.170 10129632.546 10 0 60212 18900.00000 0 -20613201.754 7736300.438 12908311.101 10 0 60212 19800.00000 0 -19175805.252 6737863.633 15436657.272 10 0 60212 20700.00000 0 -17599535.461 5439521.921 17665669.732 10 0 60212 21600.00000 0 -15947300.946 3846786.513 19552150.468 10 0 60212 22500.00000 0 -14281584.609 1977852.070 21059535.421 10 0 60212 23400.00000 0 -12661867.341 -136900.968 22158597.425 10 0 60212 24300.00000 0 -11142196.896 -2455915.638 22828008.603 10 0 60212 25200.00000 0 -9769002.734 -4927938.630 23054751.941 10 0 60212 26100.00000 0 -8579247.212 -7493911.377 22834374.473 10 0 60212 27000.00000 0 -7598989.549 -10089195.052 22171077.263 10 0 60212 27900.00000 0 -6842421.882 -12646038.639 21077640.219 10 0 60212 28800.00000 0 -6311417.264 -15096188.987 19575182.672 10 0 60212 29700.00000 0 -5995608.226 -17373535.615 17692763.518 10 0 60212 30600.00000 0 -5872992.540 -19416681.232 15466827.695 10 0 60212 31500.00000 0 -5911040.810 -21171331.503 12940508.661 10 0 60212 32400.00000 0 -6068259.420 -22592404.721 10162799.397 10 0 60212 33300.00000 0 -6296143.091 -23645773.226 7187607.121 10 0 60212 34200.00000 0 -6541434.644 -24309563.432 4072709.548 10 0 60212 35100.00000 0 -6748596.229 -24574959.590 878632.672 10 0 60212 36000.00000 0 -6862387.016 -24446477.070 -2332528.062 10 0 60212 36900.00000 0 -6830437.457 -23941693.292 -5498319.788 10 0 60212 37800.00000 0 -6605710.043 -23090447.363 -8557153.271 10 0 60212 38700.00000 0 -6148741.125 -21933542.017 -11449508.365 10 0 60212 39600.00000 0 -5429567.464 -20521002.690 -14119099.512 10 0 60212 40500.00000 0 -4429254.554 -18909967.318 -16513977.752 10 0 60212 41400.00000 0 -3140960.677 -17162296.133 -18587547.142 10 0 60212 42300.00000 0 -1570490.388 -15342002.497 -20299475.256 10 0 60212 43200.00000 0 263687.184 -13512613.209 -21616479.844 10 0 60212 44100.00000 0 2330957.105 -11734569.428 -22512976.335 10 0 60212 45000.00000 0 4589593.715 -10062777.397 -22971573.761 10 0 60212 45900.00000 0 6988269.426 -8544411.486 -22983409.806 10 0 60212 46800.00000 0 9467974.845 -7217061.129 -22548318.882 10 0 60212 47700.00000 0 11964270.509 -6107298.559 -21674830.356 10 0 60212 48600.00000 0 14409776.699 -5229726.311 -20379997.386 10 0 60212 49500.00000 0 16736797.880 -4586543.127 -18689059.969 10 0 60212 50400.00000 0 18879972.635 -4167645.121 -16634949.040 10 0 60212 51300.00000 0 20778838.946 -3951256.408 -14257641.422 10 0 60212 52200.00000 0 22380208.201 -3905061.248 -11603378.333 10 0 60212 53100.00000 0 23640249.270 -3987788.602 -8723762.816 10 0 60212 54000.00000 0 24526196.165 -4151181.067 -5674753.816 10 0 60212 54900.00000 0 25017608.574 -4342264.003 -2515576.651 10 0 60212 55800.00000 0 25107133.299 -4505818.130 692428.660 10 0 60212 56700.00000 0 24800735.568 -4586950.448 3886998.618 10 0 60212 57600.00000 0 24117391.442 -4533654.277 7006153.676 10 0 60212 58500.00000 0 23088255.030 -4299249.928 9989398.300 10 0 60212 59400.00000 0 21755336.193 -3844602.624 12778890.434 10 0 60212 60300.00000 0 20169744.666 -3140023.886 15320557.883 10 0 60212 61200.00000 0 18389574.468 -2166775.942 17565140.354 10 0 60212 62100.00000 0 16477517.188 -918115.488 19469137.567 10 0 60212 63000.00000 0 14498303.637 600167.670 20995645.795 10 0 60212 63900.00000 0 12516080.253 2369740.510 22115067.365 10 0 60212 64800.00000 0 10591828.993 4360246.712 22805680.187 10 0 60212 65700.00000 0 8780937.386 6530336.275 23054056.866 10 0 60212 66600.00000 0 7131019.086 8829163.362 22855325.718 10 0 60212 67500.00000 0 5680074.796 11198291.647 22213268.733 10 0 60212 68400.00000 0 4455069.320 13573929.505 21140254.394 10 0 60212 69300.00000 0 3470983.403 15889403.570 19657006.123 10 0 60212 70200.00000 0 2730379.382 18077769.068 17792210.053 10 0 60212 71100.00000 0 2223498.415 20074449.312 15581968.713 10 0 60212 72000.00000 0 1928884.993 21819794.999 13069110.190 10 0 60212 72900.00000 0 1814512.369 23261456.858 10302365.118 10 0 60212 73800.00000 0 1839361.459 24356472.452 7335426.595 10 0 60212 74700.00000 0 1955386.482 25072979.425 4225910.719 10 0 60212 75600.00000 0 2109784.099 25391482.835 1034237.637 10 0 60212 76500.00000 0 2247469.593 25305622.699 -2177545.085 10 0 60212 77400.00000 0 2313654.611 24822408.796 -5346973.460 10 0 60212 78300.00000 0 2256416.342 23961912.319 -8412388.241 10 0 60212 79200.00000 0 2029148.162 22756426.870 -11314141.703 10 0 60212 80100.00000 0 1592786.671 21249133.963 -13995765.590 10 0 60212 81000.00000 0 917719.461 19492329.154 -16405076.725 10 0 60212 81900.00000 0 -14708.459 17545283.569 -18495198.028 10 0 60212 82800.00000 0 -1211154.562 15471831.007 -20225474.583 10 0 60212 83700.00000 0 -2665750.145 13337782.214 -21562266.652 10 0 60212 84600.00000 0 -4360106.518 11208275.026 -22479604.222 10 0 60212 85500.00000 0 -6263856.765 9145171.503 -22959690.489 99